Location: Westminster
(33.3626°N, 96.4619°W)
Time: 14:33:56
(UTC+00:00)

Cosmos 1515 Rocket - Visible Passes

Search period start: 25 June 2022 00:00
Search period end: 05 July 2022 00:00
Orbit: 606 x 629 km, 82.5° (Epoch: 24 June)

Date Brightness Start Highest point End Pass type
(mag) Time Alt. Az. Time Alt. Az. Time Alt. Az.
25 Jun 5.9 09:36:55 10° NNE 09:40:27 23° ENE 09:43:57 10° SE visible
26 Jun 4.7 09:53:14 10° N 09:57:28 45° E 10:01:38 10° SSE visible
27 Jun 3.5 10:09:58 10° N 10:14:22 88° W 10:18:43 10° S visible
28 Jun 6.5 08:51:21 10° NE 08:53:09 12° ENE 08:54:57 10° E visible
28 Jun 4.0 10:27:02 10° NNW 10:31:10 42° W 10:35:17 10° SSW visible
29 Jun 5.8 09:06:43 10° NNE 09:10:15 23° ENE 09:13:45 10° SE visible
29 Jun 4.9 10:44:34 10° NW 10:47:55 22° W 10:51:14 10° SW visible
30 Jun 4.5 09:23:01 10° N 09:27:15 45° E 09:31:25 10° SSE visible
01 Jul 3.4 09:39:45 10° N 09:44:09 87° W 09:47:29 17° S visible
02 Jul 6.4 08:21:07 10° NE 08:22:56 12° ENE 08:24:45 10° E visible
02 Jul 4.0 09:56:50 10° NNW 10:00:58 42° W 10:03:28 21° SSW visible
03 Jul 5.6 08:36:30 10° NNE 08:40:02 23° ENE 08:42:28 15° ESE visible
03 Jul 4.9 10:14:22 10° NW 10:17:41 21° W 10:19:32 16° WSW visible
04 Jul 4.4 08:52:49 10° N 08:57:02 46° E 08:58:35 32° SE visible
04 Jul 5.6 10:33:16 10° WNW 10:34:19 11° W 10:35:22 10° W visible
